Tracking 32142 objects as of 12-Nov-2025
HD Live streaming from Space Station
objects crossing your sky now

STARLINK-35228

Track STARLINK-35228 now!
10-day predictions
STARLINK-35228 is classified as:


NORAD ID: 65517
Int'l Code: 2025-198AB
Perigee: 452.7 km
Apogee: 455.6 km
Inclination: 53.2 °
Period: 93.5 minutes
Semi major axis: 6825 km
RCS: Unknown
Launch date: September 5, 2025
Source: United States (US)
Launch site: AIR FORCE EASTERN TEST RANGE (AFETR)
Your satellite tracking list
Your tracking list is empty




NASA's NSSDC Master Catalog

Two Line Element Set (TLE):
1 65517U 25198AB  25316.12547390  .00071729  00000-0  17824-2 0  9997
2 65517  53.1602 102.5228 0002093  60.1314 299.9899 15.39686811 10545
Source of the keplerian elements: AFSPC